Regional Weather Roundup
Issued by NWS Green Bay, WI

Home | Current Version | Previous Version | Text Only | Print | Product List | Glossary On
Versions: 1 2 3 4 5 6 7 8 9 10 11 12 13 14 15 16 17 18 19 20 21 22 23 24 25 26 27 28 29 30 31 32 33 34 35 36 37 38 39 40 41 42 43 44 45 46 47 48 49 50
192
ASUS43 KGRB 211711
RWRGRB

NORTH-CENTRAL AND NORTHEAST WISCONSIN REGIONAL WEATHER ROUNDUP
NATIONAL WEATHER SERVICE GREEN BAY WI
1200 PM CDT FRI JUL 21 2017

WIZ005-009-010>012-018-019-211800-
NORTH CENTRAL WISCONSIN

CITY           SKY/WX    TMP DP  RH WIND       PRES   REMARKS
IRONWOOD       CLOUDY    75  66  73 NE3       29.98S
MANITOWISH WTR CLOUDY    80  65  60 SW9       30.00S
ARBOR VITAE    CLOUDY    80  64  59 SW9       30.00S
EAGLE RIVER    CLOUDY    81  61  51 S5        30.00F
LAND O LAKES   MOSUNNY   79  61  53 CALM      30.02S
RHINELANDER    CLOUDY    79  66  64 SW7       30.01F
PHILLIPS       CLOUDY    78  66  68 S6        29.99S
ANTIGO         PTSUNNY   77  65  65 S7        30.02F
TOMAHAWK         N/A     78  66  67 CALM      30.01S
MERRILL        CLOUDY    79  67  66 SW6       30.00F
$$

WIZ013-073-211800-
NORTHEAST WISCONSIN

CITY           SKY/WX    TMP DP  RH WIND       PRES   REMARKS
IRON MOUNTAIN  PTSUNNY   83  63  50 S3        29.97S
MARINETTE      CLOUDY    83  67  58 CALM      29.97F
OCONTO         PTSUNNY   83  64  52 SW6       29.97S
$$

WIZ017-030-035>037-045-211800-
CENTRAL WISCONSIN

CITY           SKY/WX    TMP DP  RH WIND       PRES   REMARKS
MEDFORD        CLOUDY    77  65  65 S14       30.00S
WAUSAU         CLOUDY    79  64  60 S10       29.98F
MOSINEE        PTSUNNY   79  66  65 S8        30.01S
MARSHFIELD     CLOUDY    76  65  68 S7        30.00S
WISC RAPIDS    PTSUNNY   77  68  73 SW6       30.00F
STEVENS POINT  CLOUDY    77  64  64 S7        30.00F
WAUPACA        CLOUDY    80  69  68 CALM      29.99F
SHAWANO        CLOUDY    83  66  57 CALM      29.97F
CLINTONVILLE   CLOUDY    81  64  57 S5        29.98F
WAUTOMA        CLOUDY    76  72  87 CALM      29.99F
$$

WIZ038-039-048-051-211800-
FOX VALLEY

CITY           SKY/WX    TMP DP  RH WIND       PRES   REMARKS
NWS GREEN BAY  PTSUNNY   82  69  64 S5        29.97F
APPLETON       CLOUDY    81  59  47 S7        29.98F
OSHKOSH        CLOUDY    81  69  67 SW6       29.98F
FOND DU LAC    PTSUNNY   81  66  60 S6        29.99F
$$

WIZ022-050-052-211800-
EAST CENTRAL WISCONSIN

CITY           SKY/WX    TMP DP  RH WIND       PRES   REMARKS
EPHRAIM        FAIR      79  66  64 SW3       29.98S
WASHINGTON ISL FAIR      77  66  70 SW8       29.98R
STURGEON BAY     N/A     83  64  52 SW5       29.98F
MANITOWOC      CLOUDY    84  60  44 SE5       29.98F
SHEBOYGAN      CLOUDY    83  68  60 S8        29.98F
$$

LMZ563-521-522-541>543-211800-
LAKESHORE

STATION/POSITION TIME  TEMP    WIND        PRES    VSBY  WAVE
                       AIR SEA DIR/SP/G                  HT/PER
                 (UTC) (F)     (DEG/KT/KT) (MB)    (MI)  (FT/S)
SHEBOYGAN LKSHOR 1700   73     170/ 14/ 14 1014.8F
KEWAUNEE LKSHORE 1648   72     180/  6/  7 1014.5F
NORTHPORT PIER   1640   73     350/  4/  7 1014.9R
N MID LAKE BUOY  1650   67 68  180/  2/  2 1015.8R         1/ 5
S GREEN BAY BUOY 1700   76 74  180/  2/  4 1014.7
SISTER BAY LKSHO 1702   80        CALM       N/A
CHAMBERS ISLAND  1640   79     180/  4/  8 1014.6R
MENOMINEE LKSHOR 1648   82     180/  6/  9 1014.4F
$$




USA.gov is the U.S. government's official web portal to all federal, state and local government web resources and services.